QPF
0.01 0.01 0.01 0.01 0.01 0.01 0.01 0.01 0.01 0.01 0.01 0.01 0.00 0.00 0.00 0.00 0.00 0.00 0.00 0.00 0.01 0.01 0.02 0.01 0.01 0.01 0.01 0.00 0.01 0.01 0.01 0.01 0.00 0.01 0.01 0.01 0.01 0.02 0.02 0.01 0.01 0.01 0.01 0.01
0.00 0.00 0.00 0.00 0.01 0.01 0.01 0.00 0.00 0.00 0.00 0.00 0.00 0.00 0.00 0.00 0.00 0.00 0.00 0.00 0.00 0.01 0.01 0.01 0.00 0.01 0.01 0.01 0.01 0.01 0.01 0.01 0.01 0.01 0.01 0.01 0.01 0.02 0.02 0.02 0.02 0.01 0.01 0.01
0.00 0.00 0.00 0.01 0.00 0.00 0.01 0.00 0.00 0.00 0.00 0.00 0.00 0.00 0.00 0.00 0.00 0.00 0.00 0.00 0.00 0.00 0.01 0.00 0.00 0.00 0.01 0.01 0.01 0.01 0.01 0.01 0.01 0.00 0.00 0.01 0.01 0.01 0.01 0.02 0.02 0.02 0.03 0.02
0.01 0.00 0.01 0.00 0.00 0.00 0.00 0.00 0.00 0.00 0.00 0.00 0.01 0.01 0.00 0.00 0.00 0.00 0.00 0.00 0.00 0.00 0.00 0.00 0.00 0.00 0.00 0.00 0.00 0.01 0.00 0.00 0.01 0.01 0.01 0.01 0.01 0.01 0.02 0.02 0.03 0.03 0.03 0.03
0.01 0.01 0.01 0.00 0.00 0.00 0.00 0.00 0.00 0.00 0.00 0.01 0.01 0.01 0.01 0.01 0.00 0.00 0.00 0.00 0.00 0.01 0.01 0.00 0.00 0.00 0.00 0.00 0.00 0.00 0.00 0.00 0.00 0.00 0.01 0.01 0.01 0.01 0.02 0.03 0.04 0.05 0.04 0.03
0.01 0.01 0.01 0.00 0.00 0.00 0.00 0.01 0.01 0.00 0.00 0.00 0.00 0.00 0.00 0.00 0.00 0.00 0.00 0.01 0.01 0.02 0.01 0.00 0.00 0.00 0.00 0.00 0.00 0.00 0.00 0.00 0.00 0.01 0.01 0.01 0.02 0.02 0.03 0.03 0.03 0.04 0.04 0.03
0.01 0.01 0.01 0.01 0.00 0.01 0.01 0.01 0.00 0.00 0.00 0.00 0.00 0.00 0.00 0.00 0.00 0.00 0.00 0.01 0.01 0.01 0.01 0.00 0.00 0.00 0.00 0.00 0.01 0.00 0.00 0.00 0.00 0.01 0.02 0.03 0.03 0.03 0.03 0.04 0.03 0.03 0.02 0.03
0.01 0.02 0.02 0.01 0.00 0.01 0.01 0.01 0.00 0.00 0.00 0.00 0.00 0.00 0.00 0.00 0.00 0.00 0.00 0.01 0.00 0.00 0.00 0.00 0.00 0.00 0.00 0.01 0.01 0.01 0.00 0.00 0.00 0.01 0.02 0.04 0.06 0.06 0.05 0.04 0.04 0.03 0.02 0.02
0.02 0.02 0.01 0.00 0.00 0.00 0.00 0.00 0.00 0.01 0.01 0.01 0.00 0.00 0.00 0.00 0.00 0.00 0.00 0.00 0.00 0.00 0.00 0.00 0.00 0.00 0.00 0.01 0.01 0.01 0.01 0.01 0.00 0.00 0.00 0.01 0.03 0.04 0.03 0.02 0.02 0.02 0.01 0.01
0.02 0.02 0.01 0.01 0.01 0.01 0.01 0.01 0.01 0.01 0.01 0.01 0.01 0.00 0.00 0.00 0.00 0.00 0.00 0.00 0.00 0.00 0.00 0.00 0.00 0.00 0.00 0.00 0.00 0.00 0.01 0.01 0.01 0.01 0.00 0.00 0.01 0.01 0.01 0.01 0.01 0.02 0.02 0.02
0.01 0.01 0.01 0.01 0.01 0.01 0.01 0.01 0.01 0.02 0.02 0.02 0.02 0.01 0.01 0.00 0.00 0.00 0.00 0.00 0.00 0.00 0.00 0.00 0.00 0.00 0.00 0.00 0.00 0.01 0.00 0.01 0.01 0.01 0.01 0.01 0.01 0.01 0.01 0.01 0.01 0.02 0.03 0.03
0.01 0.01 0.01 0.02 0.02 0.02 0.01 0.01 0.01 0.03 0.04 0.03 0.03 0.03 0.02 0.00 0.00 0.00 0.00 0.00 0.00 0.00 0.00 0.00 0.00 0.00 0.00 0.00 0.00 0.00 0.01 0.00 0.00 0.00 0.01 0.01 0.02 0.01 0.01 0.01 0.01 0.01 0.01 0.02
0.00 0.00 0.01 0.01 0.01 0.01 0.01 0.01 0.01 0.02 0.02 0.02 0.02 0.02 0.01 0.00 0.00 0.00 0.00 0.00 0.00 0.00 0.00 0.00 0.00 0.00 0.00 0.00 0.00 0.00 0.00 0.00 0.00 0.00 0.00 0.00 0.01 0.01 0.00 0.01 0.01 0.00 0.01 0.01
0.00 0.01 0.01 0.01 0.00 0.01 0.01 0.02 0.02 0.02 0.02 0.01 0.01 0.01 0.00 0.00 0.00 0.00 0.00 0.00 0.01 0.01 0.01 0.01 0.01 0.01 0.00 0.00 0.01 0.00 0.00 0.01 0.01 0.01 0.01 0.00 0.01 0.01 0.00 0.00 0.01 0.00 0.01 0.01
0.00 0.01 0.01 0.01 0.00 0.01 0.02 0.02 0.02 0.02 0.01 0.01 0.01 0.01 0.01 0.01 0.01 0.01 0.00 0.00 0.00 0.01 0.01 0.02 0.02 0.02 0.02 0.01 0.01 0.01 0.00 0.00 0.01 0.01 0.02 0.01 0.01 0.01 0.01 0.00 0.00 0.01 0.01 0.01
0.01 0.01 0.01 0.01 0.01 0.01 0.02 0.01 0.01 0.01 0.01 0.00 0.01 0.01 0.01 0.01 0.01 0.01 0.01 0.01 0.01 0.01 0.01 0.01 0.01 0.02 0.03 0.03 0.02 0.02 0.01 0.01 0.02 0.02 0.02 0.02 0.01 0.01 0.00 0.00 0.00 0.00 0.01 0.01
0.01 0.01 0.02 0.02 0.01 0.01 0.01 0.01 0.01 0.01 0.00 0.00 0.01 0.01 0.01 0.01 0.00 0.01 0.01 0.01 0.02 0.03 0.02 0.01 0.01 0.01 0.01 0.02 0.03 0.02 0.02 0.02 0.02 0.02 0.02 0.02 0.02 0.01 0.01 0.01 0.00 0.00 0.01 0.01
0.01 0.01 0.01 0.01 0.01 0.01 0.01 0.01 0.01 0.00 0.01 0.01 0.01 0.01 0.01 0.01 0.01 0.01 0.01 0.02 0.02 0.02 0.02 0.01 0.01 0.02 0.03 0.04 0.03 0.02 0.02 0.02 0.02 0.02 0.02 0.01 0.01 0.01 0.01 0.01 0.01 0.01 0.01 0.01
0.00 0.01 0.01 0.01 0.01 0.01 0.01 0.01 0.01 0.01 0.01 0.01 0.01 0.00 0.00 0.01 0.01 0.01 0.01 0.03 0.03 0.03 0.02 0.01 0.01 0.02 0.03 0.03 0.02 0.01 0.02 0.02 0.02 0.02 0.01 0.01 0.01 0.01 0.01 0.01 0.01 0.00 0.00 0.00
0.00 0.00 0.00 0.00 0.01 0.01 0.01 0.01 0.01 0.01 0.01 0.01 0.01 0.00 0.00 0.01 0.01 0.01 0.02 0.04 0.05 0.03 0.03 0.02 0.01 0.01 0.02 0.02 0.03 0.02 0.02 0.01 0.01 0.01 0.01 0.01 0.01 0.01 0.01 0.01 0.01 0.01 0.01 0.01
0.00 0.00 0.00 0.01 0.01 0.01 0.01 0.01 0.01 0.01 0.01 0.01 0.01 0.01 0.01 0.01 0.01 0.02 0.03 0.05 0.04 0.03 0.03 0.03 0.02 0.02 0.02 0.02 0.05 0.05 0.03 0.02 0.02 0.02 0.01 0.02 0.02 0.01 0.01 0.01 0.01 0.01 0.01 0.01
0.00 0.00 0.00 0.01 0.01 0.01 0.01 0.01 0.01 0.01 0.01 0.01 0.01 0.01 0.01 0.01 0.02 0.02 0.03 0.05 0.04 0.04 0.04 0.04 0.03 0.02 0.02 0.03 0.05 0.05 0.04 0.03 0.03 0.03 0.03 0.02 0.02 0.03 0.03 0.02 0.01 0.01 0.02 0.02
0.00 0.00 0.00 0.01 0.02 0.02 0.01 0.01 0.01 0.01 0.01 0.01 0.01 0.01 0.02 0.03 0.03 0.03 0.03 0.03 0.03 0.02 0.02 0.02 0.03 0.03 0.03 0.03 0.03 0.04 0.04 0.04 0.05 0.05 0.05 0.05 0.04 0.03 0.04 0.04 0.04 0.03 0.03 0.04
0.00 0.00 0.00 0.01 0.02 0.01 0.01 0.01 0.01 0.01 0.01 0.01 0.01 0.02 0.02 0.03 0.03 0.03 0.03 0.03 0.02 0.02 0.02 0.03 0.03 0.04 0.04 0.04 0.03 0.03 0.04 0.06 0.06 0.06 0.05 0.06 0.06 0.06 0.06 0.06 0.05 0.05 0.04 0.04
0.00 0.00 0.00 0.01 0.02 0.02 0.01 0.01 0.02 0.01 0.01 0.01 0.02 0.02 0.02 0.03 0.03 0.03 0.03 0.03 0.03 0.03 0.03 0.04 0.04 0.04 0.04 0.04 0.04 0.04 0.03 0.04 0.06 0.07 0.07 0.06 0.07 0.07 0.08 0.07 0.06 0.06 0.05 0.05
0.00 0.00 0.00 0.01 0.01 0.02 0.02 0.02 0.03 0.03 0.03 0.03 0.03 0.03 0.02 0.02 0.02 0.02 0.02 0.02 0.02 0.03 0.03 0.04 0.05 0.05 0.04 0.04 0.04 0.04 0.04 0.04 0.05 0.05 0.06 0.07 0.07 0.08 0.08 0.08 0.07 0.06 0.06 0.05
0.00 0.00 0.00 0.00 0.01 0.01 0.01 0.02 0.03 0.04 0.04 0.04 0.03 0.03 0.02 0.02 0.01 0.01 0.01 0.01 0.02 0.02 0.03 0.04 0.05 0.05 0.04 0.04 0.04 0.04 0.04 0.04 0.04 0.04 0.04 0.05 0.05 0.06 0.06 0.06 0.07 0.07 0.07 0.06
MSLP
1012.80 1012.92 1013.03 1013.12 1013.16 1013.15 1013.06 1012.91 1012.67 1012.39 1012.07 1011.76 1011.51 1011.34 1011.28 1011.35 1011.53 1011.81 1012.15 1012.54 1012.92 1013.29 1013.64 1013.96 1014.27 1014.60 1014.94 1015.33 1015.75 1016.20 1016.66 1017.10 1017.50 1017.84 1018.11 1018.31 1018.45 1018.55 1018.64 1018.73 1018.85 1019.00 1019.20 1019.42
1012.62 1012.66 1012.66 1012.63 1012.55 1012.44 1012.28 1012.08 1011.84 1011.59 1011.35 1011.13 1010.97 1010.89 1010.90 1011.00 1011.20 1011.46 1011.76 1012.10 1012.43 1012.76 1013.07 1013.38 1013.69 1014.03 1014.40 1014.80 1015.25 1015.72 1016.19 1016.65 1017.07 1017.44 1017.75 1017.99 1018.19 1018.36 1018.51 1018.66 1018.83 1019.03 1019.24 1019.46
1012.48 1012.43 1012.33 1012.18 1011.99 1011.76 1011.53 1011.28 1011.04 1010.82 1010.63 1010.49 1010.41 1010.40 1010.47 1010.61 1010.81 1011.05 1011.32 1011.60 1011.89 1012.17 1012.45 1012.74 1013.04 1013.38 1013.76 1014.17 1014.63 1015.10 1015.58 1016.05 1016.49 1016.89 1017.24 1017.55 1017.81 1018.06 1018.29 1018.52 1018.75 1018.99 1019.22 1019.45
1012.33 1012.21 1012.01 1011.76 1011.46 1011.15 1010.84 1010.55 1010.30 1010.09 1009.95 1009.86 1009.85 1009.90 1010.01 1010.17 1010.37 1010.59 1010.83 1011.07 1011.31 1011.55 1011.80 1012.07 1012.36 1012.69 1013.07 1013.48 1013.93 1014.41 1014.89 1015.37 1015.82 1016.25 1016.64 1017.00 1017.34 1017.66 1017.96 1018.26 1018.55 1018.83 1019.08 1019.31
1012.13 1011.94 1011.67 1011.33 1010.95 1010.57 1010.21 1009.89 1009.63 1009.44 1009.32 1009.28 1009.31 1009.40 1009.54 1009.71 1009.90 1010.11 1010.31 1010.51 1010.72 1010.92 1011.14 1011.39 1011.67 1012.00 1012.37 1012.78 1013.23 1013.70 1014.18 1014.66 1015.12 1015.57 1016.00 1016.40 1016.79 1017.16 1017.53 1017.88 1018.20 1018.51 1018.77 1019.00
1011.82 1011.57 1011.24 1010.85 1010.43 1010.01 1009.62 1009.29 1009.03 1008.85 1008.76 1008.75 1008.80 1008.92 1009.07 1009.25 1009.43 1009.61 1009.79 1009.96 1010.13 1010.31 1010.51 1010.74 1011.01 1011.33 1011.70 1012.11 1012.55 1013.01 1013.49 1013.97 1014.44 1014.89 1015.34 1015.77 1016.19 1016.60 1016.99 1017.36 1017.71 1018.02 1018.29 1018.50
1011.35 1011.07 1010.71 1010.30 1009.87 1009.45 1009.07 1008.75 1008.50 1008.35 1008.28 1008.29 1008.37 1008.49 1008.65 1008.82 1008.99 1009.15 1009.30 1009.44 1009.59 1009.74 1009.92 1010.14 1010.40 1010.71 1011.07 1011.47 1011.91 1012.37 1012.84 1013.31 1013.78 1014.24 1014.69 1015.13 1015.56 1015.97 1016.37 1016.75 1017.09 1017.40 1017.65 1017.87
1010.71 1010.42 1010.07 1009.69 1009.29 1008.90 1008.56 1008.28 1008.07 1007.95 1007.91 1007.94 1008.03 1008.16 1008.32 1008.47 1008.63 1008.76 1008.89 1009.00 1009.12 1009.25 1009.40 1009.60 1009.85 1010.14 1010.49 1010.88 1011.31 1011.76 1012.22 1012.69 1013.15 1013.60 1014.05 1014.48 1014.90 1015.31 1015.69 1016.05 1016.39 1016.68 1016.93 1017.14
1009.95 1009.68 1009.37 1009.04 1008.71 1008.40 1008.13 1007.92 1007.77 1007.69 1007.68 1007.74 1007.84 1007.97 1008.11 1008.25 1008.38 1008.49 1008.59 1008.67 1008.76 1008.85 1008.98 1009.15 1009.37 1009.64 1009.96 1010.32 1010.73 1011.16 1011.61 1012.07 1012.52 1012.96 1013.40 1013.82 1014.22 1014.61 1014.98 1015.32 1015.64 1015.92 1016.16 1016.38
1009.15 1008.92 1008.68 1008.44 1008.20 1008.00 1007.82 1007.69 1007.61 1007.59 1007.62 1007.70 1007.81 1007.94 1008.07 1008.19 1008.30 1008.38 1008.44 1008.49 1008.54 1008.60 1008.68 1008.80 1008.97 1009.20 1009.47 1009.80 1010.17 1010.57 1011.00 1011.43 1011.86 1012.29 1012.71 1013.12 1013.51 1013.88 1014.24 1014.57 1014.87 1015.15 1015.40 1015.64
1008.39 1008.22 1008.07 1007.94 1007.82 1007.73 1007.67 1007.63 1007.63 1007.67 1007.74 1007.84 1007.96 1008.08 1008.20 1008.30 1008.39 1008.44 1008.47 1008.48 1008.48 1008.49 1008.52 1008.58 1008.69 1008.85 1009.06 1009.32 1009.64 1009.99 1010.37 1010.77 1011.18 1011.59 1011.99 1012.38 1012.76 1013.12 1013.47 1013.80 1014.10 1014.39 1014.66 1014.92
1007.73 1007.64 1007.59 1007.58 1007.59 1007.62 1007.67 1007.73 1007.81 1007.90 1008.01 1008.13 1008.25 1008.37 1008.48 1008.57 1008.64 1008.67 1008.67 1008.65 1008.61 1008.56 1008.53 1008.52 1008.55 1008.62 1008.75 1008.93 1009.16 1009.44 1009.76 1010.11 1010.48 1010.85 1011.23 1011.60 1011.96 1012.32 1012.66 1012.99 1013.31 1013.62 1013.91 1014.20
1007.19 1007.19 1007.25 1007.36 1007.48 1007.63 1007.78 1007.93 1008.08 1008.22 1008.36 1008.50 1008.63 1008.76 1008.87 1008.96 1009.01 1009.04 1009.02 1008.97 1008.90 1008.81 1008.71 1008.63 1008.57 1008.55 1008.57 1008.65 1008.79 1008.98 1009.21 1009.49 1009.79 1010.11 1010.45 1010.79 1011.13 1011.47 1011.81 1012.14 1012.46 1012.79 1013.10 1013.42
1006.75 1006.84 1007.00 1007.22 1007.45 1007.70 1007.94 1008.16 1008.36 1008.55 1008.72 1008.88 1009.03 1009.16 1009.28 1009.38 1009.45 1009.48 1009.47 1009.41 1009.32 1009.19 1009.05 1008.90 1008.76 1008.64 1008.57 1008.54 1008.56 1008.64 1008.78 1008.95 1009.17 1009.42 1009.69 1009.97 1010.27 1010.58 1010.89 1011.21 1011.53 1011.86 1012.19 1012.52
1006.36 1006.53 1006.78 1007.08 1007.41 1007.74 1008.06 1008.34 1008.59 1008.82 1009.01 1009.20 1009.36 1009.52 1009.66 1009.79 1009.88 1009.94 1009.95 1009.91 1009.82 1009.68 1009.51 1009.31 1009.11 1008.91 1008.73 1008.60 1008.51 1008.47 1008.49 1008.55 1008.66 1008.81 1008.99 1009.19 1009.42 1009.67 1009.93 1010.21 1010.51 1010.82 1011.15 1011.47
1005.93 1006.17 1006.51 1006.89 1007.30 1007.70 1008.07 1008.40 1008.70 1008.96 1009.19 1009.39 1009.59 1009.78 1009.96 1010.12 1010.25 1010.36 1010.41 1010.41 1010.34 1010.22 1010.04 1009.82 1009.57 1009.31 1009.05 1008.82 1008.63 1008.47 1008.36 1008.31 1008.29 1008.32 1008.38 1008.48 1008.61 1008.77 1008.96 1009.17 1009.42 1009.68 1009.97 1010.28
1005.43 1005.74 1006.14 1006.60 1007.07 1007.53 1007.95 1008.33 1008.67 1008.96 1009.22 1009.46 1009.69 1009.92 1010.14 1010.35 1010.54 1010.70 1010.80 1010.85 1010.83 1010.74 1010.57 1010.35 1010.08 1009.78 1009.47 1009.17 1008.88 1008.62 1008.40 1008.22 1008.07 1007.97 1007.91 1007.88 1007.89 1007.93 1008.02 1008.14 1008.30 1008.50 1008.73 1008.99
1004.86 1005.24 1005.70 1006.22 1006.74 1007.26 1007.73 1008.16 1008.53 1008.86 1009.16 1009.44 1009.70 1009.97 1010.23 1010.49 1010.73 1010.94 1011.11 1011.20 1011.23 1011.18 1011.04 1010.84 1010.57 1010.26 1009.91 1009.56 1009.20 1008.86 1008.54 1008.25 1008.00 1007.77 1007.58 1007.42 1007.30 1007.22 1007.19 1007.20 1007.25 1007.36 1007.51 1007.69
1004.28 1004.72 1005.24 1005.81 1006.39 1006.95 1007.47 1007.94 1008.35 1008.72 1009.06 1009.37 1009.67 1009.97 1010.27 1010.57 1010.85 1011.10 1011.30 1011.44 1011.50 1011.49 1011.39 1011.20 1010.95 1010.65 1010.30 1009.92 1009.52 1009.13 1008.75 1008.38 1008.03 1007.70 1007.40 1007.13 1006.89 1006.68 1006.53 1006.42 1006.36 1006.36 1006.41 1006.51
1003.81 1004.30 1004.87 1005.49 1006.11 1006.71 1007.27 1007.77 1008.23 1008.63 1008.99 1009.33 1009.66 1009.98 1010.30 1010.61 1010.91 1011.17 1011.40 1011.55 1011.64 1011.65 1011.57 1011.41 1011.18 1010.89 1010.56 1010.18 1009.78 1009.37 1008.96 1008.55 1008.14 1007.75 1007.36 1007.00 1006.66 1006.35 1006.08 1005.86 1005.68 1005.57 1005.51 1005.51
1003.55 1004.08 1004.69 1005.34 1005.99 1006.62 1007.21 1007.74 1008.21 1008.64 1009.02 1009.38 1009.71 1010.04 1010.35 1010.66 1010.94 1011.20 1011.41 1011.56 1011.64 1011.65 1011.59 1011.44 1011.24 1010.97 1010.65 1010.30 1009.92 1009.53 1009.12 1008.70 1008.28 1007.85 1007.43 1007.01 1006.60 1006.21 1005.85 1005.52 1005.24 1005.01 1004.84 1004.73
1003.60 1004.16 1004.78 1005.44 1006.10 1006.74 1007.33 1007.87 1008.35 1008.78 1009.17 1009.52 1009.84 1010.15 1010.44 1010.71 1010.96 1011.18 1011.35 1011.47 1011.53 1011.52 1011.45 1011.31 1011.12 1010.87 1010.59 1010.27 1009.93 1009.57 1009.20 1008.81 1008.40 1007.98 1007.55 1007.11 1006.66 1006.22 1005.78 1005.37 1004.99 1004.66 1004.38 1004.16
1003.99 1004.55 1005.17 1005.81 1006.46 1007.07 1007.64 1008.16 1008.63 1009.04 1009.40 1009.73 1010.02 1010.29 1010.54 1010.76 1010.96 1011.12 1011.24 1011.31 1011.32 1011.28 1011.19 1011.05 1010.86 1010.64 1010.38 1010.10 1009.81 1009.50 1009.17 1008.83 1008.47 1008.08 1007.67 1007.23 1006.77 1006.29 1005.80 1005.32 1004.86 1004.43 1004.04 1003.71
1004.70 1005.24 1005.82 1006.42 1007.01 1007.57 1008.09 1008.56 1008.98 1009.35 1009.67 1009.95 1010.20 1010.42 1010.62 1010.78 1010.92 1011.01 1011.07 1011.08 1011.05 1010.97 1010.85 1010.69 1010.51 1010.29 1010.06 1009.83 1009.58 1009.32 1009.04 1008.75 1008.44 1008.09 1007.71 1007.29 1006.83 1006.33 1005.81 1005.27 1004.73 1004.21 1003.73 1003.30
1005.65 1006.14 1006.65 1007.17 1007.68 1008.16 1008.60 1008.99 1009.34 1009.64 1009.91 1010.14 1010.33 1010.50 1010.63 1010.74 1010.81 1010.85 1010.85 1010.81 1010.73 1010.61 1010.46 1010.29 1010.09 1009.89 1009.68 1009.46 1009.25 1009.03 1008.80 1008.56 1008.29 1007.98 1007.62 1007.22 1006.76 1006.25 1005.70 1005.12 1004.52 1003.93 1003.36 1002.84
1006.72 1007.13 1007.55 1007.97 1008.37 1008.74 1009.08 1009.38 1009.64 1009.87 1010.06 1010.23 1010.36 1010.48 1010.56 1010.61 1010.64 1010.62 1010.58 1010.49 1010.37 1010.22 1010.05 1009.85 1009.65 1009.44 1009.24 1009.04 1008.84 1008.65 1008.45 1008.23 1007.98 1007.70 1007.36 1006.97 1006.51 1005.99 1005.42 1004.80 1004.16 1003.51 1002.88 1002.29
1007.75 1008.08 1008.40 1008.70 1008.99 1009.24 1009.47 1009.67 1009.84 1009.98 1010.10 1010.20 1010.28 1010.34 1010.38 1010.39 1010.37 1010.32 1010.24 1010.12 1009.98 1009.80 1009.61 1009.40 1009.18 1008.97 1008.76 1008.56 1008.36 1008.17 1007.98 1007.77 1007.53 1007.24 1006.91 1006.52 1006.06 1005.53 1004.95 1004.31 1003.64 1002.97 1002.30 1001.69
Thickness
5671 5670 5670 5671 5673 5674 5673 5677 5675 5682 5683 5688 5690 5690 5691 5691 5690 5689 5687 5686 5685 5683 5682 5679 5678 5676 5674 5673 5671 5669 5666 5664 5662 5661 5660 5658 5657 5657 5656 5656 5656 5656 5655 5654
5663 5664 5664 5664 5668 5670 5670 5673 5674 5676 5677 5688 5687 5687 5686 5686 5684 5682 5681 5681 5681 5679 5677 5675 5674 5671 5669 5668 5667 5665 5663 5660 5658 5656 5655 5653 5653 5653 5652 5651 5651 5651 5650 5650
5657 5659 5657 5658 5669 5668 5668 5671 5671 5669 5676 5680 5677 5677 5678 5680 5679 5678 5677 5676 5674 5674 5673 5672 5670 5668 5665 5664 5663 5660 5658 5655 5653 5651 5649 5648 5648 5648 5646 5646 5646 5645 5645 5644
5647 5648 5639 5663 5670 5667 5664 5666 5669 5669 5670 5670 5670 5671 5673 5674 5674 5673 5672 5670 5669 5669 5668 5668 5666 5664 5662 5660 5658 5655 5653 5651 5648 5646 5645 5643 5643 5643 5642 5642 5641 5640 5640 5639
5639 5639 5646 5656 5659 5657 5654 5657 5663 5661 5662 5663 5663 5663 5666 5667 5666 5665 5665 5664 5663 5663 5662 5661 5660 5658 5656 5654 5652 5650 5647 5646 5644 5642 5640 5638 5637 5637 5637 5637 5636 5635 5635 5634
5632 5628 5632 5647 5652 5653 5649 5646 5657 5655 5653 5654 5654 5652 5656 5658 5656 5656 5656 5656 5655 5654 5654 5653 5653 5651 5649 5648 5646 5644 5643 5641 5640 5638 5636 5634 5633 5632 5632 5632 5631 5630 5630 5629
5625 5625 5634 5642 5641 5641 5632 5640 5647 5648 5647 5646 5645 5647 5648 5648 5647 5646 5646 5647 5646 5646 5645 5645 5645 5643 5641 5641 5640 5639 5638 5636 5634 5633 5631 5630 5628 5627 5626 5626 5625 5624 5624 5623
5621 5618 5624 5634 5631 5629 5633 5637 5637 5638 5638 5637 5637 5637 5637 5637 5636 5636 5636 5637 5637 5636 5636 5637 5636 5635 5633 5632 5633 5631 5630 5628 5627 5626 5625 5624 5622 5620 5620 5619 5618 5618 5618 5617
5619 5621 5625 5625 5624 5624 5625 5626 5627 5627 5628 5627 5626 5626 5627 5627 5628 5628 5628 5628 5628 5627 5627 5627 5627 5626 5625 5624 5624 5623 5621 5620 5619 5619 5618 5617 5616 5614 5613 5612 5612 5612 5611 5610
5610 5616 5615 5615 5615 5615 5615 5615 5617 5618 5618 5617 5616 5617 5617 5618 5619 5619 5618 5618 5618 5618 5618 5618 5617 5616 5616 5615 5615 5614 5613 5613 5612 5612 5611 5610 5609 5608 5607 5606 5606 5606 5605 5605
5605 5609 5607 5607 5607 5607 5606 5607 5607 5607 5608 5607 5607 5607 5608 5609 5609 5609 5609 5610 5609 5609 5609 5609 5609 5608 5607 5606 5606 5606 5606 5605 5605 5604 5603 5602 5602 5602 5601 5601 5601 5599 5599 5599
5601 5605 5601 5601 5601 5599 5597 5597 5597 5597 5597 5597 5597 5597 5598 5599 5599 5600 5600 5601 5600 5600 5600 5600 5600 5599 5599 5598 5597 5598 5598 5598 5597 5596 5594 5594 5594 5593 5591 5591 5590 5589 5589 5589
5595 5594 5592 5592 5591 5590 5589 5588 5588 5587 5587 5587 5588 5588 5588 5589 5589 5590 5590 5591 5591 5591 5591 5591 5590 5590 5591 5590 5590 5590 5590 5590 5588 5587 5587 5586 5586 5586 5585 5583 5580 5579 5579 5578
5584 5582 5582 5582 5582 5582 5581 5580 5580 5579 5579 5579 5578 5579 5579 5579 5580 5580 5581 5582 5582 5582 5582 5582 5581 5581 5582 5581 5581 5581 5581 5580 5579 5579 5579 5579 5578 5578 5578 5578 5577 5576 5573 5570
5576 5575 5575 5575 5574 5574 5573 5572 5571 5570 5570 5569 5569 5569 5570 5571 5571 5571 5572 5573 5573 5573 5573 5572 5572 5572 5572 5572 5572 5572 5572 5572 5571 5571 5570 5570 5570 5569 5569 5570 5570 5569 5568 5565
5568 5567 5566 5566 5565 5565 5564 5564 5563 5562 5561 5561 5561 5561 5561 5561 5561 5562 5563 5563 5563 5564 5564 5563 5563 5563 5562 5562 5562 5562 5563 5561 5560 5561 5561 5561 5561 5560 5560 5560 5560 5560 5559 5558
5559 5558 5558 5558 5557 5557 5556 5556 5555 5554 5554 5553 5553 5552 5552 5552 5552 5553 5554 5554 5554 5555 5555 5554 5554 5554 5552 5552 5552 5553 5553 5553 5550 5551 5552 5552 5552 5551 5551 5550 5550 5550 5550 5549
5554 5553 5553 5552 5550 5549 5549 5548 5547 5546 5546 5545 5543 5543 5542 5543 5543 5544 5544 5544 5545 5546 5546 5545 5545 5544 5543 5542 5542 5542 5542 5543 5543 5543 5543 5543 5542 5542 5541 5541 5541 5540 5540 5538
5546 5545 5544 5544 5542 5541 5541 5540 5539 5538 5537 5536 5535 5535 5535 5535 5535 5535 5535 5535 5536 5537 5538 5537 5534 5534 5533 5532 5530 5531 5532 5532 5532 5533 5533 5532 5532 5532 5531 5531 5531 5530 5530 5529
5538 5538 5537 5536 5535 5534 5533 5532 5531 5529 5528 5527 5526 5526 5527 5527 5526 5526 5527 5527 5529 5529 5528 5527 5525 5524 5524 5523 5520 5522 5522 5523 5523 5523 5523 5523 5523 5523 5523 5522 5521 5521 5520 5520
5531 5530 5529 5528 5527 5526 5525 5524 5522 5521 5520 5519 5518 5519 5519 5518 5518 5517 5517 5519 5521 5518 5517 5516 5516 5516 5515 5513 5511 5513 5514 5514 5514 5514 5514 5513 5513 5513 5513 5512 5512 5511 5512 5512
5524 5523 5521 5520 5519 5519 5518 5516 5515 5513 5512 5511 5510 5510 5510 5509 5509 5508 5508 5509 5510 5507 5507 5507 5507 5506 5505 5504 5504 5504 5505 5505 5505 5504 5504 5503 5503 5503 5503 5503 5503 5503 5503 5504
5517 5515 5514 5513 5512 5512 5510 5509 5507 5505 5504 5503 5502 5502 5501 5500 5499 5498 5500 5500 5499 5498 5497 5498 5497 5495 5494 5495 5496 5495 5495 5495 5494 5494 5494 5493 5493 5492 5492 5492 5493 5494 5494 5494
5509 5508 5507 5506 5505 5504 5503 5502 5499 5498 5497 5496 5494 5494 5493 5492 5492 5491 5491 5490 5489 5488 5488 5488 5486 5486 5485 5486 5486 5486 5486 5485 5484 5484 5483 5483 5483 5483 5483 5483 5484 5485 5485 5485
5501 5500 5499 5498 5497 5497 5495 5493 5491 5490 5489 5488 5487 5486 5485 5484 5484 5484 5483 5483 5481 5480 5480 5479 5478 5477 5477 5477 5477 5477 5477 5476 5475 5475 5474 5474 5474 5474 5475 5475 5475 5475 5476 5476
5493 5493 5492 5491 5489 5487 5486 5485 5483 5482 5480 5480 5479 5478 5477 5477 5476 5475 5475 5474 5473 5472 5471 5470 5469 5469 5469 5469 5468 5468 5467 5467 5466 5465 5465 5465 5465 5466 5466 5466 5466 5466 5467 5467
5486 5485 5484 5483 5481 5479 5478 5476 5475 5474 5473 5472 5471 5470 5470 5469 5469 5468 5467 5467 5466 5465 5463 5462 5461 5461 5461 5460 5460 5459 5458 5458 5458 5457 5457 5457 5457 5457 5457 5457 5457 5458 5458 5458